Showing default

LES 1, 1002

Orbit data source: Space-Track

LES 1, 1002 is a payload satellite owned by USAF SSD (US) in LEO that was launched on Thu, 11 Feb 1965 UTC via a TITAN IIIA launch vehicle from the Air Force Eastern Test Range (AFETR). Payload-class satellites include a variety of spacecraft equipped with specific instruments for various scientific and technological missions. These include communications satellites like Starlink; space stations such as the ISS; scientific satellites like the Hubble; Earth observation satellites from companies like Planet Labs, Umbra, and HawkEye 360; GPS; miniature CubeSats for education and research; and military/defense satellites.

Loading next visibility...
Identifier
1002, 1965-008C
Orbit
LEO
Country
Flag of USUS
Related business
Manufacturer
MIT-LL
Mission
Spacecraft
Bus & Motor
LES, STAR 13A
Mass
158 kg wet, 31 kg dry
Launch date (UTC)
1965-02-11 (61 years ago)
Launch vehicle
TITAN IIIA
Launch site
Air Force Eastern Test Range (AFETR)
Object type
Payload
Rocket body
Debris
Shape & HBR
Unknown
Radar Cross Section
Medium (>0.1 m² and <1 m²)

Expand to show TLE details & history
Last TLE update: 19 hours ago

TLE from 19 hours ago
0 LES 1
1 01002U 65008C   25310.76892567  .00000032  00000-0  30880-2 0  9999
2 01002  32.1406 211.6140 0015723 189.7761 170.2431  9.88354836194188
Epoch: 2025-11-06T18:27Z
TLE epoch observation values (Epoch: 2025-11-06T18:27:15.177Z)
Latitude
-0.00002°
Longitude
-111.42176°
Altitude
2,806.948 km
Speed
6.585 km/s
True Right ascension
14h 06m 27s
True Declination
0° 00' 00"
Sunlit
Object was in daylight at epoch
Visualization orbit readout
Latitude
Unknown
Longitude
Unknown
Altitude
Unknown
Speed
Unknown
Apparent Right ascension
Unknown
Apparent Declination
Unknown
Sunlit
N/A
Visualization observer readout
Local Sidereal Time
09:12:34
Azimuth
Unknown
Elevation
Unknown
Doppler factor
Unknown
Orbital elements
Apogee altitude
2,810.971 km
Perigee altitude
2,782.12 km
Semi-major axis
9,174.682 km
Eccentricity
0.00157
Inclination
32.1406°
RAAN
211.614°
Arg. of periapsis
189.7761°
True anomaly
170.27357°
Mean anomaly
170.2431°
Eccentric anomaly
170.25834°
Mean motion
2.46977 °/min
Orbital period
145.76 mins
BSTAR
0.003088
Loading maneuver chart data...
Computing Atmospheric mass density...
Loading historical data...
Loading historical data...
Loading historical data...
Loading historical data...
Loading historical data...
Loading historical data...
Loading historical data...
Other satellites on launch #8 in the year 1965 (1965-02-11 UTC)

Documentation

Showing up to 5 results
|